Date,TemperatureHighF,TemperatureAvgF,TemperatureLowF,DewpointHighF,DewpointAvgF,DewpointLowF,HumidityHigh,HumidityAvg,HumidityLow,PressureMaxIn,PressureMinIn,WindSpeedMaxMPH,WindSpeedAvgMPH,GustSpeedMaxMPH,PrecipitationSumIn
2013-1-1,28,18,10,15,9,2,85,70,51,29.67,29.57,0,0,0,0.00
2013-1-2,27,17,8,8,3,-3,64,54,35,29.79,29.65,0,0,0,0.00
2013-1-3,34,18,8,2,-2,-8,64,43,18,29.81,29.72,0,0,0,0.00
2013-1-4,42,28,16,10,2,-7,44,32,23,29.75,29.61,0,0,0,0.02
2013-1-5,39,29,22,14,8,4,55,42,26,29.85,29.62,0,0,0,0.00
2013-1-6,43,28,15,10,6,0,58,40,22,29.83,29.59,0,0,0,0.00
2013-1-7,47,38,26,10,6,2,47,28,16,29.64,29.50,0,0,0,0.00
2013-1-8,50,40,23,13,7,-7,49,27,12,29.83,29.45,0,0,0,0.00
2013-1-9,46,33,25,18,14,11,62,47,29,29.93,29.71,0,0,0,0.00
2013-1-10,41,33,22,16,13,9,61,44,30,29.69,29.22,0,0,0,0.00
2013-1-11,38,28,16,20,3,-13,66,37,17,29.38,29.05,0,0,0,0.02
2013-1-12,18,12,6,2,-5,-13,72,48,27,29.50,29.38,0,0,0,0.00
2013-1-13,15,8,2,4,1,-3,81,73,58,29.58,29.48,0,0,0,0.00
2013-1-14,16,9,0,8,3,-8,83,75,67,29.59,29.51,0,0,0,0.00
2013-1-15,27,16,-2,15,4,-9,72,60,44,29.69,29.55,0,0,0,0.00
2013-1-16,45,33,21,20,16,11,66,51,35,29.91,29.69,0,0,0,0.00
2013-1-17,44,32,22,20,16,12,68,52,36,29.98,29.82,0,0,0,0.00
2013-1-18,54,38,28,15,3,-3,57,26,10,29.81,29.69,0,0,0,0.00
2013-1-19,52,39,32,7,3,0,33,23,12,29.84,29.70,0,0,0,0.00
2013-1-20,46,37,24,11,2,-11,55,26,11,29.81,29.71,0,0,0,0.00
2013-1-21,49,33,16,12,8,0,70,38,21,29.79,29.70,0,0,0,0.00
2013-1-22,59,45,32,3,-5,-14,22,10,2,29.80,29.68,0,0,0,0.00
2013-1-23,65,45,31,7,-7,-15,15,9,3,29.82,29.76,0,0,0,0.00
2013-1-24,61,48,34,24,9,-8,42,22,10,29.78,29.61,0,0,0,0.00
2013-1-25,45,38,32,25,21,15,67,50,41,29.80,29.69,0,0,0,0.00
2013-1-26,52,42,31,31,25,20,69,51,36,29.68,29.42,0,0,0,0.00
2013-1-27,57,44,32,29,24,17,76,48,21,29.46,29.37,0,0,0,0.00
2013-1-28,54,37,26,28,22,14,88,58,21,29.43,29.23,0,0,0,0.00
2013-1-29,27,21,16,22,13,2,86,72,39,29.49,29.27,0,0,0,0.00
2013-1-30,33,22,10,15,8,0,81,58,37,29.51,29.42,0,0,0,0.00
2013-1-31,40,32,26,20,18,16,66,56,41,29.73,29.68,0,0,0,0.00
2013-2-1,46,33,23,16,13,9,66,46,23,29.77,29.62,0,0,0,0.00
2013-2-2,49,34,21,20,15,10,69,47,28,29.87,29.76,0,0,0,0.00
2013-2-3,49,37,26,20,13,5,60,40,20,29.84,29.53,0,0,0,0.00
2013-2-4,47,35,25,13,9,3,43,33,23,29.61,29.52,0,0,0,0.00
2013-2-5,50,38,25,16,13,10,52,37,24,29.68,29.55,0,0,0,0.00
2013-2-6,54,40,29,32,22,13,91,50,25,29.65,29.46,0,0,0,0.00
2013-2-7,42,32,24,27,23,17,89,70,51,29.74,29.65,0,0,0,0.01
2013-2-8,48,34,20,21,17,11,73,53,30,29.69,29.39,0,0,0,0.00
2013-2-9,38,29,22,23,19,15,86,68,47,29.40,29.17,0,0,0,0.00
2013-2-10,28,24,20,19,15,8,85,71,50,29.59,29.21,0,0,0,0.00
2013-2-11,22,18,14,17,13,8,89,82,74,29.59,29.52,0,0,0,0.00
2013-2-12,35,22,10,9,3,-3,77,48,21,29.61,29.56,0,0,0,0.02
2013-2-13,42,30,16,14,10,1,53,43,28,29.61,29.54,0,0,0,0.00
2013-2-14,37,26,18,22,14,10,76,62,45,29.80,29.60,0,0,0,0.00
2013-2-15,34,22,14,16,12,8,80,66,35,29.82,29.75,0,0,0,0.00
2013-2-16,52,36,16,25,12,7,75,41,18,29.81,29.62,0,0,0,0.00
2013-2-17,56,39,26,16,2,-7,60,24,7,29.62,29.30,0,0,0,0.00
2013-2-18,38,28,20,18,7,-6,85,47,15,29.65,29.39,0,0,0,0.00
2013-2-19,34,27,17,14,10,0,77,50,39,29.65,29.40,0,0,0,0.00
2013-2-20,31,26,22,26,17,9,91,70,45,29.40,29.25,0,0,0,0.00
2013-2-21,22,18,15,18,12,9,86,79,74,29.45,29.26,0,0,0,0.00
2013-2-22,28,21,11,20,16,5,89,81,72,29.52,29.43,0,0,0,0.04
2013-2-23,39,27,13,25,13,5,83,57,32,29.47,29.28,0,0,0,0.04
2013-2-24,27,23,19,23,19,15,91,84,77,29.60,29.30,0,0,0,0.00
2013-2-25,35,24,15,15,11,6,85,60,33,29.61,29.44,0,0,0,0.00
2013-2-26,30,23,15,20,14,5,86,70,46,29.63,29.38,0,0,0,0.00
2013-2-27,33,23,14,17,12,4,87,63,41,29.76,29.64,0,0,0,0.01
2013-2-28,37,26,11,14,7,-1,57,45,29,29.78,29.71,0,0,0,0.00
2013-3-1,43,32,22,20,16,10,67,52,38,29.88,29.77,0,0,0,0.00
2013-3-2,54,40,28,24,20,16,62,46,29,29.88,29.72,0,0,0,0.00
2013-3-3,58,46,33,22,20,16,56,38,21,29.71,29.39,0,0,0,0.00
2013-3-4,45,31,15,28,20,9,87,65,37,29.76,29.37,0,0,0,0.00
2013-3-5,36,23,10,23,15,3,85,72,57,29.81,29.72,0,0,0,0.03
2013-3-6,59,41,21,28,18,9,79,43,17,29.71,29.53,0,0,0,0.00
2013-3-7,61,47,34,21,15,7,47,31,12,29.62,29.52,0,0,0,0.00
2013-3-8,52,46,34,30,27,25,83,49,35,29.53,29.33,0,0,0,0.00
2013-3-9,34,29,23,29,25,14,91,84,68,29.62,29.27,0,0,0,0.01
2013-3-10,35,28,19,16,14,11,82,58,42,29.66,29.62,0,0,0,0.00
2013-3-11,51,38,29,27,18,13,87,49,27,29.68,29.54,0,0,0,0.00
2013-3-12,30,29,26,26,24,23,93,85,78,29.83,29.69,0,0,0,0.00
2013-3-13,61,44,26,25,23,21,85,48,22,29.87,29.78,0,0,0,0.00
2013-3-14,64,50,36,23,20,18,57,34,18,29.92,29.81,0,0,0,0.00
2013-3-15,70,55,40,23,19,11,50,27,10,29.81,29.58,0,0,0,0.00
2013-3-16,50,43,38,34,26,20,79,53,38,29.67,29.51,0,0,0,0.02
2013-3-17,54,39,28,31,23,12,83,57,20,29.54,29.26,0,0,0,0.00
2013-3-18,46,35,23,16,10,2,60,37,17,29.56,29.46,0,0,0,0.00
2013-3-19,48,38,31,13,9,2,43,31,21,29.84,29.55,0,0,0,0.00
2013-3-20,45,32,22,17,13,9,66,47,29,29.85,29.48,0,0,0,0.00